Location: Unspecified
(42.9300°N, 71.1866°W)
Time: 12:16:46
(UTC-04:00)

CZ-3 Stage 3 - Visible Passes

Search period start: 01 October 2014 00:00
Search period end: 11 October 2014 00:00
Orbit: 411 x 34833 km, 30.8° (Epoch: 29 September)

Date Brightness Start Highest point End Pass type
(mag) Time Alt. Az. Time Alt. Az. Time Alt. Az.
01 Oct 8.0 00:00:00 18° SSE 05:25:35 50° SSE 05:48:37 10° E visible
01 Oct 8.7 22:46:07 10° SE 01:11:45 24° ESE 02:01:04 10° E visible
03 Oct 6.0 07:53:24 10° WSW 09:13:36 50° SSW 09:20:25 10° ESE visible
03 Oct 7.9 22:33:14 10° SSE 05:23:28 52° SSE 05:45:46 10° E visible
04 Oct 8.6 22:28:46 10° SE 01:09:03 26° ESE 01:59:38 10° E visible
06 Oct 5.9 07:58:12 10° WSW 09:10:35 49° SSW 09:17:17 10° ESE visible
06 Oct 7.8 22:21:10 10° SSE 05:21:08 53° SSE 05:42:45 10° E visible
07 Oct 8.5 22:11:46 10° SE 01:06:12 27° ESE 01:57:47 10° E visible
09 Oct 5.8 08:01:14 10° WSW 09:07:24 48° SSW 09:13:59 10° SE visible
09 Oct 7.7 22:09:31 10° SSE 05:18:35 54° SSE 05:39:34 10° E visible
10 Oct 10.1 21:55:04 10° SE 00:00:00 25° SE 00:00:00 25° SE visible
